Temp
61 60 61 62 63 64 63 62 63 64 64 63 62 63 64 64 65 64 64 64 63 64 64 63 63 63 64 64 65 65 64 64 63 62 61 62 60 61 63 62 62 63 63 62 61 58 57 56 59 62 62 62 63 63 64 64 65 65 64 64 65 65 66
62 61 62 62 62 62 60 61 61 62 62 62 63 62 62 63 63 63 63 62 62 62 63 62 62 63 63 63 63 63 63 64 64 63 62 61 62 61 61 61 62 61 62 62 62 61 58 56 56 58 59 61 62 63 64 65 66 65 65 65 65 65 66
60 60 61 59 59 60 58 58 59 59 60 60 60 61 60 61 61 61 60 60 60 60 59 59 58 58 59 61 62 63 63 63 64 63 62 62 63 63 62 62 60 61 60 60 60 60 59 59 56 58 59 59 58 61 63 63 65 66 66 65 64 66 66
57 57 56 56 57 56 56 56 56 57 57 57 58 58 57 58 58 59 57 58 59 57 56 55 55 55 56 57 60 61 62 62 62 63 63 63 63 62 62 62 61 61 60 59 60 60 59 58 57 57 59 60 60 59 61 64 65 66 66 66 65 65 66
53 53 53 53 54 53 53 52 54 54 54 55 55 55 54 55 56 55 56 56 56 55 55 55 55 55 55 56 57 57 58 59 59 59 60 61 61 62 62 63 62 62 61 61 61 61 60 59 58 58 58 60 60 60 62 62 65 65 65 65 66 67 67
53 52 52 51 52 52 51 51 51 51 51 51 52 52 52 53 53 53 53 54 54 54 55 55 54 54 54 54 55 55 55 56 55 56 56 58 60 60 61 62 62 62 62 63 62 61 61 60 59 57 59 60 57 58 61 62 61 65 66 65 66 67 67
52 52 51 51 51 51 51 50 50 50 50 50 51 50 52 52 52 52 53 53 53 53 53 53 52 52 52 52 53 52 53 54 54 54 55 56 57 59 61 61 62 62 62 63 62 62 61 60 58 58 58 58 59 58 59 59 62 61 63 66 67 67 67
52 51 52 52 51 50 50 50 50 50 50 50 50 51 52 51 51 51 53 51 51 51 51 51 51 51 50 50 50 50 51 52 52 52 53 54 55 57 57 59 60 61 62 63 62 62 62 61 60 60 58 56 57 58 57 59 59 61 63 64 67 67 67
53 52 51 51 51 51 50 50 49 49 50 50 51 51 50 51 51 51 51 51 50 50 49 49 49 49 49 48 48 48 48 50 49 50 51 52 53 54 54 56 58 59 62 62 63 62 62 62 61 61 60 58 56 55 57 56 58 59 64 63 65 67 68
51 50 50 50 50 50 50 50 49 49 50 50 50 51 50 51 51 51 51 50 49 49 48 48 48 48 48 47 47 47 47 48 48 47 48 48 49 51 52 54 55 56 59 61 62 62 63 62 62 61 61 59 58 56 55 54 56 57 61 63 62 64 67
50 50 50 49 50 50 49 49 49 49 49 49 50 51 51 51 51 51 50 49 49 48 48 48 47 47 47 46 46 47 48 49 48 48 48 48 48 49 50 51 53 54 56 57 58 61 62 62 62 62 61 61 60 57 57 55 56 58 58 62 64 64 65
50 50 50 50 50 49 49 49 49 48 49 49 49 49 49 49 49 49 49 48 48 47 47 47 47 46 46 45 45 46 47 48 48 47 48 48 48 48 48 48 50 51 53 55 56 58 61 62 62 62 61 61 60 60 58 57 55 58 60 59 61 64 65
50 49 49 48 49 49 49 49 49 48 48 49 48 49 48 48 48 48 48 48 47 47 46 46 46 45 45 44 44 45 46 47 47 47 47 49 49 49 48 47 48 49 51 52 54 55 56 59 61 62 61 61 61 61 60 58 57 57 59 60 61 62 64
48 49 49 49 48 48 49 49 48 49 49 48 48 48 48 48 48 48 47 47 46 46 45 45 45 45 44 44 44 45 46 46 46 47 47 48 49 49 48 48 49 50 51 51 51 53 54 56 58 61 62 61 61 61 60 59 57 57 59 60 60 61 63
48 48 48 48 48 48 48 48 49 48 47 48 48 48 48 48 48 47 47 47 46 46 45 45 45 44 43 43 43 44 44 44 45 46 47 47 48 49 48 48 49 50 52 51 51 52 53 54 56 58 60 61 61 61 61 59 58 57 57 58 58 60 61
48 48 47 47 47 47 48 48 49 47 47 47 48 48 47 47 47 47 46 46 46 45 45 45 45 44 43 43 43 43 44 44 44 45 45 46 48 49 49 49 49 50 51 50 51 52 53 54 56 57 58 59 59 60 61 61 59 58 58 58 60 59 59
47 47 47 47 47 47 47 47 49 47 47 47 46 47 48 47 46 46 45 45 45 45 44 44 44 44 43 43 43 43 43 43 44 45 45 46 48 48 48 48 49 50 50 50 51 52 53 54 53 53 54 55 56 57 60 61 61 59 59 58 59 59 60
47 47 46 47 46 47 47 47 48 47 46 46 46 46 46 47 46 45 44 44 44 44 44 44 43 43 43 43 43 43 43 43 44 45 45 46 48 48 48 48 48 49 49 48 49 50 51 50 50 50 50 51 53 55 56 58 60 61 59 58 59 60 60
46 46 47 46 46 46 46 46 46 47 47 45 45 45 45 45 46 44 44 44 45 44 44 44 43 43 43 43 43 43 43 43 43 44 45 47 47 48 47 47 48 48 48 47 48 49 49 49 49 48 48 49 50 51 52 54 57 60 60 59 59 59 59
46 46 46 46 46 46 45 45 46 45 46 45 45 44 45 44 45 44 44 44 44 44 44 44 43 43 43 43 43 43 43 43 43 44 45 46 47 47 48 47 47 48 47 48 48 47 47 47 47 46 47 47 48 47 48 50 53 56 59 59 59 60 59
46 46 46 45 45 45 45 45 45 45 46 44 44 44 43 43 44 44 44 44 44 45 44 44 44 43 43 42 42 42 43 42 43 43 44 45 46 47 47 48 48 48 48 49 48 47 47 46 46 45 46 46 45 45 45 46 49 52 55 58 58 58 59
46 46 45 44 44 44 44 44 45 45 45 44 45 44 44 44 43 43 44 43 43 44 44 44 44 43 42 42 42 42 42 42 42 42 43 44 45 46 47 47 47 48 49 50 48 48 48 47 45 43 44 44 43 43 43 44 46 48 52 55 58 59 58
44 44 44 43 43 43 44 44 44 44 44 44 44 45 44 44 43 43 42 43 43 43 43 44 45 43 43 42 42 42 42 42 42 42 43 43 44 45 46 46 47 49 48 48 47 46 44 44 45 44 43 42 42 41 42 42 43 46 49 51 55 57 57
43 43 43 43 43 43 43 43 43 43 43 43 43 43 43 42 42 42 42 42 42 42 43 45 42 40 40 41 42 42 41 42 42 42 42 42 42 43 45 46 46 47 47 47 47 45 44 43 42 42 42 43 43 42 41 41 42 44 46 49 53 56 57
42 42 42 42 42 42 43 43 43 42 42 42 42 42 41 41 41 41 42 42 41 42 42 44 40 41 40 40 41 42 42 41 42 42 42 42 42 43 43 44 45 46 46 47 47 46 45 43 42 41 41 41 41 42 42 42 42 42 44 46 49 53 57
41 41 41 41 41 42 42 42 41 41 41 42 41 41 40 40 40 41 41 40 41 42 42 43 40 41 40 40 40 42 42 42 42 42 42 42 42 42 43 43 43 44 45 47 47 45 44 43 43 42 42 42 42 42 41 40 42 44 45 45 46 49 54
40 39 39 40 40 40 40 40 39 40 41 40 40 40 40 39 40 40 40 40 40 41 42 43 40 40 40 40 39 40 42 41 42 42 42 42 42 42 42 42 41 42 44 45 44 44 43 42 41 41 42 43 43 44 43 43 42 42 44 45 46 48 53
40 39 39 39 39 39 38 38 39 40 39 39 38 38 38 38 40 40 39 39 39 40 42 41 40 40 40 40 39 41 42 42 41 42 42 42 42 42 42 42 42 42 43 43 43 42 41 40 40 40 41 42 43 44 45 45 47 47 48 49 50 51 53
39 38 39 39 38 38 38 37 37 39 40 38 39 38 39 39 39 38 39 39 39 39 41 40 40 40 40 39 40 42 41 41 41 41 41 41 42 42 42 42 42 42 42 42 42 40 40 40 39 39 40 41 42 43 44 46 44 45 46 47 48 49 52
39 38 38 38 38 37 37 38 37 39 38 37 38 38 38 38 38 38 39 39 38 39 40 40 40 40 40 39 41 41 41 41 40 40 40 41 42 42 42 43 43 42 41 41 41 38 38 39 39 39 39 39 40 41 42 46 45 44 43 43 42 43 43
39 38 37 38 37 37 37 37 37 38 36 36 38 37 38 38 38 38 38 38 40 39 38 40 40 40 40 39 41 40 40 40 39 39 39 41 41 41 42 43 44 42 41 41 39 38 38 39 39 39 39 38 39 39 41 44 45 45 44 43 43 43 43
37 37 38 37 38 38 38 38 37 36 36 36 37 36 40 37 38 38 38 39 42 39 38 40 40 39 40 39 41 41 40 40 39 39 39 39 40 40 40 42 42 41 41 40 38 38 38 39 39 38 39 38 37 37 39 42 41 41 42 44 46 49 48
38 37 37 37 37 38 39 36 36 36 36 36 37 36 37 37 36 38 38 38 38 38 38 39 41 39 40 39 39 41 40 39 38 38 38 39 38 39 39 40 40 39 38 38 38 37 38 38 38 39 39 37 36 35 40 40 41 42 42 43 44 47 50
39 37 37 38 39 39 36 35 36 36 36 36 36 37 36 37 37 37 37 37 38 38 40 40 40 39 39 39 39 39 40 39 39 39 38 38 37 37 38 39 40 40 38 38 38 38 38 38 38 39 39 37 37 38 39 40 42 43 45 45 45 46 50
38 40 39 38 37 37 36 36 37 35 34 35 35 36 36 37 36 37 37 38 38 37 40 41 40 40 39 39 39 39 39 40 40 39 38 38 38 38 38 39 39 40 38 38 38 38 38 38 38 39 37 37 37 37 39 42 43 44 45 46 46 49 51
40 40 40 38 36 37 36 35 36 36 35 36 35 36 36 36 36 36 37 38 38 38 38 39 40 40 39 38 38 39 38 39 38 40 38 37 37 38 39 39 40 40 38 38 38 38 38 37 38 37 36 36 37 37 39 41 41 42 43 44 45 44 44
38 38 38 37 37 36 37 36 36 36 34 34 35 36 36 35 36 36 36 37 38 38 38 38 39 39 39 38 38 38 38 38 38 39 40 38 39 39 39 40 40 38 38 38 38 38 37 37 37 36 36 36 37 38 38 39 40 40 40 40 41 42 42
MSLP
1020.47 1020.63 1020.51 1020.51 1020.43 1020.43 1020.47 1020.43 1020.31 1020.27 1020.23 1020.19 1020.27 1020.23 1020.19 1020.11 1019.91 1019.79 1019.75 1019.67 1019.67 1019.67 1019.59 1019.55 1019.47 1019.35 1019.27 1019.11 1019.03 1018.91 1018.83 1018.75 1018.67 1018.63 1018.47 1018.27 1018.35 1018.19 1017.99 1018.03 1017.99 1017.87 1017.83 1017.79 1017.75 1017.87 1017.63 1017.39 1016.75 1016.51 1016.43 1016.27 1016.19 1016.07 1015.99 1016.03 1016.11 1016.15 1016.27 1016.39 1016.39 1016.43 1016.51
1020.67 1020.63 1020.55 1020.59 1020.67 1020.67 1020.71 1020.71 1020.71 1020.67 1020.59 1020.59 1020.55 1020.59 1020.55 1020.47 1020.23 1020.15 1020.11 1019.99 1019.91 1019.95 1019.91 1019.87 1019.75 1019.59 1019.43 1019.27 1019.03 1018.87 1018.75 1018.59 1018.47 1018.39 1018.31 1018.23 1018.19 1018.11 1017.91 1017.75 1017.75 1017.83 1017.71 1017.51 1017.35 1017.35 1017.43 1017.35 1016.71 1016.59 1016.31 1016.03 1016.03 1015.83 1015.67 1015.55 1015.59 1015.71 1015.79 1015.91 1015.91 1015.99 1016.15
1020.99 1020.91 1020.91 1021.07 1021.07 1021.07 1021.11 1021.19 1021.11 1021.03 1020.95 1020.95 1020.95 1020.99 1020.99 1020.91 1020.67 1020.59 1020.55 1020.39 1020.39 1020.47 1020.55 1020.55 1020.35 1020.23 1020.07 1019.63 1019.31 1019.03 1018.75 1018.55 1018.31 1018.19 1018.19 1018.07 1017.95 1017.83 1017.79 1017.63 1017.59 1017.51 1017.39 1017.23 1017.15 1017.11 1017.03 1016.99 1016.83 1016.31 1016.07 1016.11 1016.15 1015.59 1015.39 1015.35 1015.35 1015.31 1015.39 1015.59 1015.79 1015.83 1015.83
1021.59 1021.63 1021.63 1021.71 1021.71 1021.71 1021.83 1021.87 1021.79 1021.75 1021.59 1021.55 1021.51 1021.47 1021.51 1021.31 1021.15 1021.11 1021.03 1020.87 1020.87 1021.03 1020.99 1020.83 1020.87 1020.87 1020.55 1020.15 1019.71 1019.35 1019.07 1018.83 1018.51 1018.31 1018.15 1017.95 1017.83 1017.67 1017.55 1017.47 1017.47 1017.35 1017.23 1017.11 1016.95 1016.91 1016.91 1016.75 1016.59 1016.23 1015.95 1015.79 1015.55 1015.51 1015.03 1014.87 1014.99 1015.07 1015.11 1015.23 1015.47 1015.51 1015.51
1022.23 1022.35 1022.43 1022.55 1022.51 1022.59 1022.63 1022.67 1022.55 1022.39 1022.31 1022.23 1022.15 1022.07 1021.99 1021.83 1021.59 1021.51 1021.39 1021.19 1021.19 1021.19 1021.11 1021.15 1021.11 1020.95 1020.67 1020.39 1020.03 1019.87 1019.63 1019.27 1019.03 1018.79 1018.47 1018.19 1017.99 1017.79 1017.55 1017.39 1017.23 1017.11 1017.03 1016.95 1016.71 1016.63 1016.55 1016.39 1016.31 1015.87 1015.71 1015.47 1015.35 1015.03 1014.67 1014.71 1014.59 1014.79 1014.87 1014.91 1014.91 1015.03 1015.07
1022.67 1022.79 1022.91 1022.99 1023.03 1023.07 1023.15 1023.15 1023.07 1023.07 1022.95 1022.79 1022.75 1022.67 1022.59 1022.35 1022.15 1021.91 1021.75 1021.63 1021.59 1021.55 1021.39 1021.31 1021.23 1021.03 1020.87 1020.63 1020.39 1020.19 1019.99 1019.71 1019.55 1019.43 1019.03 1018.55 1018.19 1017.95 1017.59 1017.27 1017.07 1016.95 1016.79 1016.55 1016.43 1016.31 1016.11 1015.99 1015.91 1015.79 1015.23 1015.35 1015.43 1015.03 1014.71 1014.59 1014.63 1014.43 1014.35 1014.47 1014.55 1014.63 1014.71
1023.03 1023.11 1023.23 1023.35 1023.43 1023.43 1023.47 1023.55 1023.55 1023.59 1023.55 1023.51 1023.35 1023.23 1023.07 1022.79 1022.59 1022.47 1022.27 1022.19 1022.19 1022.07 1021.87 1021.75 1021.59 1021.47 1021.31 1021.15 1020.87 1020.67 1020.43 1020.07 1019.83 1019.59 1019.27 1018.83 1018.43 1017.99 1017.63 1017.31 1016.99 1016.75 1016.55 1016.39 1016.23 1016.07 1015.95 1015.83 1015.67 1015.55 1015.27 1015.11 1015.03 1014.87 1014.63 1014.59 1014.39 1014.67 1014.27 1014.03 1013.95 1014.11 1014.27
1023.31 1023.39 1023.47 1023.55 1023.63 1023.71 1023.75 1023.79 1023.87 1023.83 1023.79 1023.75 1023.59 1023.51 1023.27 1023.07 1022.91 1022.67 1022.51 1022.55 1022.59 1022.51 1022.35 1022.19 1022.03 1021.83 1021.71 1021.51 1021.31 1021.07 1020.75 1020.39 1020.11 1019.83 1019.47 1019.11 1018.71 1018.31 1017.99 1017.63 1017.07 1016.71 1016.43 1016.15 1015.99 1015.75 1015.59 1015.43 1015.27 1015.07 1015.11 1015.11 1014.95 1014.83 1014.71 1014.47 1014.47 1014.31 1013.87 1013.75 1013.63 1013.67 1013.71
1023.51 1023.59 1023.71 1023.75 1023.91 1023.95 1024.07 1024.07 1024.11 1024.03 1023.95 1023.83 1023.71 1023.63 1023.55 1023.35 1023.15 1022.99 1022.87 1022.95 1022.91 1022.79 1022.67 1022.55 1022.39 1022.19 1021.99 1021.79 1021.59 1021.39 1021.11 1020.75 1020.51 1020.19 1019.87 1019.47 1019.07 1018.71 1018.35 1017.91 1017.43 1016.83 1016.39 1016.03 1015.75 1015.47 1015.23 1015.03 1014.87 1014.71 1014.71 1014.71 1014.79 1014.67 1014.43 1014.47 1014.19 1013.95 1013.47 1013.71 1013.43 1013.19 1013.23
1023.79 1023.91 1024.03 1024.15 1024.23 1024.27 1024.27 1024.31 1024.27 1024.23 1024.11 1023.99 1023.95 1023.87 1023.83 1023.63 1023.39 1023.27 1023.19 1023.19 1023.15 1023.07 1022.91 1022.75 1022.63 1022.47 1022.27 1022.07 1021.87 1021.55 1021.31 1021.07 1020.87 1020.63 1020.31 1019.99 1019.59 1019.15 1018.63 1018.19 1017.83 1017.23 1016.59 1016.07 1015.63 1015.27 1014.95 1014.71 1014.55 1014.43 1014.39 1014.43 1014.39 1014.51 1014.39 1014.23 1013.75 1013.75 1013.07 1013.07 1013.39 1012.83 1012.71
1024.07 1024.15 1024.23 1024.39 1024.51 1024.51 1024.55 1024.51 1024.47 1024.39 1024.39 1024.35 1024.27 1024.15 1024.03 1023.83 1023.67 1023.55 1023.51 1023.51 1023.47 1023.31 1023.19 1023.07 1022.91 1022.75 1022.51 1022.31 1022.11 1021.83 1021.51 1021.19 1020.95 1020.67 1020.47 1020.23 1019.87 1019.43 1018.95 1018.55 1018.03 1017.47 1016.91 1016.55 1016.03 1015.35 1014.79 1014.47 1014.27 1014.11 1013.99 1013.91 1013.91 1013.99 1013.91 1013.83 1013.23 1012.83 1012.75 1012.55 1012.51 1012.47 1012.43
1024.35 1024.39 1024.51 1024.63 1024.75 1024.75 1024.75 1024.75 1024.71 1024.75 1024.67 1024.63 1024.51 1024.39 1024.23 1024.07 1023.95 1023.91 1023.83 1023.83 1023.75 1023.63 1023.47 1023.35 1023.15 1022.99 1022.79 1022.63 1022.35 1022.07 1021.71 1021.39 1021.11 1020.75 1020.47 1020.19 1019.83 1019.55 1019.27 1018.87 1018.35 1017.83 1017.31 1016.79 1016.31 1015.71 1014.95 1014.39 1014.03 1013.79 1013.63 1013.51 1013.43 1013.43 1013.43 1013.35 1013.27 1012.27 1012.23 1012.43 1012.15 1011.91 1011.99
1024.59 1024.67 1024.79 1024.95 1024.99 1024.95 1024.99 1024.99 1024.99 1024.91 1024.95 1024.83 1024.75 1024.59 1024.43 1024.31 1024.23 1024.19 1024.15 1024.11 1024.03 1023.91 1023.75 1023.59 1023.43 1023.27 1023.03 1022.87 1022.67 1022.31 1021.95 1021.63 1021.31 1020.95 1020.51 1020.15 1019.83 1019.55 1019.31 1018.99 1018.63 1018.19 1017.59 1017.03 1016.51 1015.95 1015.43 1014.75 1014.07 1013.59 1013.35 1013.19 1013.03 1012.91 1012.87 1012.83 1012.75 1012.39 1011.95 1011.79 1011.75 1011.67 1011.59
1024.91 1024.95 1025.07 1025.19 1025.27 1025.23 1025.19 1025.19 1025.19 1025.23 1025.11 1024.99 1024.91 1024.79 1024.67 1024.59 1024.51 1024.47 1024.39 1024.31 1024.27 1024.15 1023.99 1023.79 1023.63 1023.47 1023.23 1023.03 1022.79 1022.55 1022.19 1021.79 1021.43 1020.99 1020.59 1020.15 1019.83 1019.51 1019.23 1018.91 1018.51 1018.15 1017.71 1017.27 1016.75 1016.23 1015.71 1015.15 1014.43 1013.63 1013.19 1012.95 1012.75 1012.59 1012.59 1012.51 1012.35 1012.11 1011.67 1011.59 1011.71 1011.59 1011.39
1025.19 1025.31 1025.47 1025.59 1025.59 1025.51 1025.47 1025.47 1025.47 1025.43 1025.31 1025.27 1025.07 1025.03 1024.95 1024.87 1024.83 1024.75 1024.63 1024.55 1024.47 1024.35 1024.19 1024.07 1023.87 1023.67 1023.43 1023.19 1022.87 1022.63 1022.35 1021.99 1021.59 1021.19 1020.75 1020.31 1019.87 1019.55 1019.27 1018.87 1018.39 1017.95 1017.55 1017.23 1016.79 1016.31 1015.83 1015.31 1014.71 1014.03 1013.27 1012.87 1012.55 1012.27 1012.11 1012.15 1011.95 1011.91 1011.67 1011.47 1011.55 1011.51 1011.47
1025.59 1025.75 1025.91 1025.99 1025.95 1025.87 1025.83 1025.75 1025.75 1025.71 1025.63 1025.59 1025.43 1025.27 1025.23 1025.15 1025.07 1024.99 1024.87 1024.79 1024.67 1024.55 1024.43 1024.27 1024.11 1023.91 1023.71 1023.47 1023.19 1022.87 1022.59 1022.27 1021.83 1021.31 1020.91 1020.47 1020.03 1019.59 1019.19 1018.91 1018.47 1017.99 1017.51 1017.15 1016.75 1016.31 1015.79 1015.31 1014.75 1014.27 1013.71 1013.27 1012.83 1012.19 1011.79 1011.63 1011.59 1011.47 1011.43 1010.99 1010.91 1011.23 1011.19
1025.95 1026.19 1026.31 1026.35 1026.31 1026.27 1026.19 1026.15 1026.03 1026.03 1025.99 1025.91 1025.75 1025.63 1025.47 1025.39 1025.35 1025.27 1025.15 1025.07 1024.91 1024.79 1024.67 1024.51 1024.35 1024.15 1023.95 1023.67 1023.39 1023.07 1022.71 1022.39 1022.03 1021.59 1021.11 1020.63 1020.11 1019.67 1019.35 1018.95 1018.51 1018.11 1017.63 1017.23 1016.75 1016.27 1015.75 1015.43 1015.19 1014.87 1014.43 1013.87 1013.47 1012.83 1011.99 1011.39 1011.11 1011.11 1010.91 1010.87 1010.39 1010.59 1010.51
1026.35 1026.55 1026.63 1026.63 1026.63 1026.55 1026.55 1026.51 1026.35 1026.31 1026.27 1026.15 1026.03 1025.91 1025.79 1025.67 1025.63 1025.51 1025.43 1025.31 1025.15 1024.99 1024.87 1024.71 1024.55 1024.31 1024.07 1023.83 1023.51 1023.23 1022.91 1022.55 1022.19 1021.79 1021.31 1020.83 1020.31 1019.95 1019.63 1019.27 1018.79 1018.35 1017.99 1017.63 1017.03 1016.59 1016.23 1016.03 1015.75 1015.47 1015.15 1014.67 1014.07 1013.31 1012.63 1011.79 1010.99 1010.55 1010.47 1010.39 1010.07 1009.91 1010.03
1026.71 1026.83 1026.87 1026.91 1026.91 1026.87 1026.87 1026.79 1026.71 1026.55 1026.47 1026.39 1026.27 1026.19 1026.15 1026.03 1025.87 1025.87 1025.75 1025.59 1025.43 1025.27 1025.11 1024.91 1024.75 1024.51 1024.23 1023.91 1023.59 1023.35 1022.99 1022.63 1022.31 1021.95 1021.43 1020.95 1020.55 1020.15 1019.83 1019.47 1019.07 1018.71 1018.35 1017.95 1017.43 1016.95 1016.67 1016.39 1016.03 1015.75 1015.39 1014.91 1014.47 1014.03 1013.43 1012.55 1011.55 1010.51 1009.99 1009.79 1009.75 1009.59 1009.63
1026.99 1027.11 1027.15 1027.19 1027.15 1027.15 1027.07 1027.03 1026.91 1026.83 1026.71 1026.63 1026.55 1026.47 1026.39 1026.31 1026.19 1026.11 1025.99 1025.87 1025.67 1025.47 1025.27 1024.99 1024.79 1024.59 1024.35 1024.03 1023.75 1023.43 1023.07 1022.67 1022.35 1021.99 1021.55 1021.11 1020.71 1020.31 1019.99 1019.63 1019.27 1018.95 1018.55 1018.11 1017.71 1017.39 1017.07 1016.75 1016.47 1016.19 1015.79 1015.39 1014.91 1014.51 1013.83 1012.99 1012.15 1011.11 1009.99 1009.43 1009.15 1009.07 1009.11
1027.23 1027.35 1027.39 1027.39 1027.35 1027.35 1027.31 1027.23 1027.19 1027.07 1026.91 1026.83 1026.75 1026.71 1026.67 1026.59 1026.47 1026.31 1026.23 1026.07 1025.91 1025.63 1025.43 1025.11 1024.91 1024.75 1024.51 1024.23 1023.91 1023.55 1023.27 1022.91 1022.51 1022.11 1021.63 1021.19 1020.83 1020.39 1020.03 1019.71 1019.39 1019.03 1018.63 1018.19 1017.95 1017.67 1017.39 1017.11 1016.83 1016.51 1016.07 1015.79 1015.43 1014.95 1014.39 1013.55 1012.59 1011.63 1010.47 1009.39 1008.87 1008.71 1008.71
1027.51 1027.55 1027.55 1027.55 1027.51 1027.55 1027.51 1027.47 1027.39 1027.27 1027.15 1027.07 1026.95 1026.91 1026.87 1026.75 1026.63 1026.47 1026.31 1026.19 1025.99 1025.75 1025.51 1025.27 1025.03 1024.95 1024.63 1024.23 1024.03 1023.71 1023.35 1023.03 1022.67 1022.27 1021.75 1021.35 1020.91 1020.47 1020.07 1019.71 1019.39 1018.99 1018.63 1018.35 1018.07 1017.83 1017.59 1017.47 1017.23 1016.83 1016.39 1016.15 1015.59 1015.15 1014.63 1013.95 1013.23 1012.19 1010.95 1009.79 1008.75 1008.35 1008.19
1027.75 1027.75 1027.75 1027.75 1027.75 1027.75 1027.75 1027.67 1027.55 1027.43 1027.35 1027.31 1027.23 1027.11 1027.07 1026.91 1026.83 1026.75 1026.55 1026.35 1026.11 1025.87 1025.67 1025.39 1025.35 1025.23 1024.99 1024.67 1024.15 1023.75 1023.39 1023.03 1022.71 1022.35 1021.95 1021.51 1021.03 1020.63 1020.19 1019.83 1019.39 1018.99 1018.67 1018.31 1017.95 1017.63 1017.43 1017.23 1017.15 1017.11 1016.79 1016.43 1015.99 1015.35 1014.79 1014.15 1013.39 1012.55 1011.43 1010.31 1009.03 1008.19 1007.87
1027.95 1027.91 1027.95 1027.91 1027.95 1027.91 1027.91 1027.83 1027.75 1027.67 1027.63 1027.55 1027.51 1027.43 1027.31 1027.15 1027.03 1026.91 1026.71 1026.55 1026.27 1026.03 1025.87 1025.59 1025.51 1025.27 1024.99 1024.67 1024.27 1023.83 1023.47 1023.07 1022.71 1022.35 1022.03 1021.75 1021.31 1020.79 1020.27 1019.83 1019.39 1018.95 1018.59 1018.19 1017.79 1017.51 1017.27 1017.03 1016.79 1016.43 1016.11 1015.95 1015.87 1015.63 1014.87 1013.99 1013.19 1012.59 1011.79 1010.67 1009.31 1008.23 1007.55
1028.07 1028.11 1028.07 1028.11 1028.15 1028.19 1028.15 1028.03 1027.95 1027.95 1027.87 1027.79 1027.75 1027.63 1027.51 1027.39 1027.23 1027.11 1026.91 1026.71 1026.47 1026.23 1025.99 1025.71 1025.59 1025.31 1024.99 1024.67 1024.35 1023.95 1023.47 1023.15 1022.75 1022.39 1022.07 1021.75 1021.39 1020.95 1020.47 1019.95 1019.47 1019.03 1018.63 1018.19 1017.71 1017.39 1017.07 1016.83 1016.55 1016.11 1015.59 1015.07 1014.67 1014.51 1014.43 1014.15 1013.35 1012.43 1011.71 1011.07 1009.83 1008.39 1007.43
1028.19 1028.23 1028.27 1028.35 1028.39 1028.39 1028.31 1028.19 1028.19 1028.15 1028.07 1028.11 1027.99 1027.79 1027.79 1027.63 1027.43 1027.31 1027.15 1026.91 1026.67 1026.39 1026.11 1025.79 1025.59 1025.27 1024.91 1024.59 1024.27 1023.87 1023.47 1023.23 1022.83 1022.47 1022.15 1021.79 1021.43 1020.99 1020.51 1020.07 1019.59 1019.11 1018.63 1018.15 1017.75 1017.43 1017.11 1016.63 1016.11 1015.71 1015.19 1014.47 1013.75 1013.35 1013.15 1013.03 1012.83 1012.39 1011.55 1011.03 1010.15 1008.87 1007.75
1028.27 1028.39 1028.47 1028.51 1028.59 1028.55 1028.51 1028.47 1028.43 1028.39 1028.31 1028.19 1028.15 1028.07 1027.95 1027.79 1027.63 1027.47 1027.35 1027.15 1026.91 1026.47 1026.15 1025.79 1025.55 1025.19 1024.87 1024.55 1024.23 1023.87 1023.55 1023.23 1022.87 1022.51 1022.19 1021.83 1021.43 1021.03 1020.67 1020.27 1019.79 1019.23 1018.67 1018.27 1017.91 1017.55 1017.19 1016.75 1016.03 1015.27 1014.55 1013.99 1013.35 1012.51 1012.03 1011.63 1011.43 1011.23 1010.99 1010.43 1009.63 1008.59 1007.19
1028.39 1028.51 1028.67 1028.75 1028.79 1028.83 1028.79 1028.67 1028.51 1028.51 1028.47 1028.47 1028.43 1028.35 1028.23 1028.03 1027.79 1027.67 1027.47 1027.27 1026.99 1026.55 1026.19 1025.91 1025.59 1025.23 1024.95 1024.63 1024.27 1023.83 1023.55 1023.23 1022.87 1022.51 1022.19 1021.87 1021.51 1021.15 1020.75 1020.43 1019.95 1019.43 1018.91 1018.47 1018.03 1017.75 1017.35 1016.75 1016.07 1015.23 1014.39 1013.59 1012.95 1012.27 1011.59 1010.95 1010.31 1009.95 1009.63 1009.31 1008.75 1007.79 1006.91
1028.63 1028.75 1028.83 1028.95 1028.99 1029.03 1028.99 1028.95 1028.75 1028.75 1028.55 1028.51 1028.47 1028.43 1028.23 1028.15 1027.99 1027.75 1027.51 1027.27 1027.03 1026.67 1026.31 1025.99 1025.67 1025.31 1025.07 1024.79 1024.39 1023.95 1023.63 1023.31 1022.99 1022.59 1022.19 1021.91 1021.51 1021.19 1020.87 1020.47 1019.99 1019.55 1019.07 1018.63 1018.07 1017.75 1017.31 1016.71 1015.95 1015.07 1014.15 1013.35 1012.55 1011.71 1010.91 1010.15 1009.79 1009.43 1009.03 1008.51 1008.03 1007.51 1006.59
1028.67 1028.83 1028.99 1029.03 1029.15 1029.11 1028.99 1028.87 1028.87 1028.95 1028.63 1028.67 1028.59 1028.55 1028.43 1028.27 1028.11 1027.87 1027.55 1027.31 1027.15 1026.83 1026.55 1026.15 1025.83 1025.51 1025.23 1025.03 1024.51 1024.19 1023.83 1023.43 1023.11 1022.75 1022.35 1021.99 1021.63 1021.31 1020.99 1020.55 1020.15 1019.75 1019.23 1018.67 1018.11 1017.67 1017.07 1016.43 1015.71 1014.87 1014.03 1013.23 1012.39 1011.47 1010.31 1009.23 1008.71 1008.47 1008.07 1007.63 1007.15 1006.59 1006.07
1028.71 1028.95 1029.07 1029.11 1029.19 1029.23 1029.19 1029.15 1029.03 1029.19 1028.99 1028.83 1028.67 1028.71 1028.59 1028.31 1028.07 1027.91 1027.71 1027.51 1027.23 1027.11 1026.87 1026.39 1025.99 1025.67 1025.35 1025.15 1024.75 1024.43 1024.11 1023.71 1023.31 1022.99 1022.51 1022.07 1021.67 1021.43 1021.11 1020.71 1020.27 1019.83 1019.35 1018.71 1018.15 1017.59 1016.95 1016.27 1015.55 1014.83 1013.99 1013.11 1012.19 1011.23 1009.99 1009.03 1008.19 1007.39 1006.87 1006.59 1006.11 1005.51 1004.83
1028.95 1029.03 1029.11 1029.23 1029.23 1029.11 1029.11 1029.15 1029.23 1029.27 1029.11 1029.03 1028.87 1028.83 1028.63 1028.47 1028.23 1027.99 1027.91 1027.75 1027.47 1027.35 1027.11 1026.59 1026.11 1025.83 1025.51 1025.27 1024.91 1024.55 1024.31 1023.91 1023.51 1023.19 1022.87 1022.39 1021.99 1021.63 1021.19 1020.71 1020.27 1019.87 1019.39 1018.79 1018.15 1017.51 1016.87 1016.23 1015.59 1014.83 1014.03 1013.23 1012.39 1011.43 1010.27 1009.27 1008.35 1007.43 1006.11 1005.35 1004.71 1004.39 1003.71
1029.07 1029.11 1029.15 1029.31 1029.39 1029.31 1029.35 1029.23 1029.11 1029.03 1029.07 1029.15 1028.95 1028.87 1028.75 1028.63 1028.43 1028.23 1028.11 1027.91 1027.71 1027.51 1027.23 1026.71 1026.31 1026.03 1025.71 1025.39 1025.11 1024.75 1024.43 1024.07 1023.83 1023.47 1023.15 1022.79 1022.35 1021.87 1021.43 1020.79 1020.19 1019.71 1019.23 1018.67 1018.03 1017.39 1016.75 1016.15 1015.63 1014.83 1014.03 1013.43 1012.55 1011.35 1010.07 1009.07 1007.95 1007.15 1005.91 1004.99 1004.19 1003.71 1003.15
1029.03 1029.27 1029.39 1029.31 1029.39 1029.39 1029.39 1029.23 1029.15 1029.03 1028.99 1029.03 1028.95 1028.83 1028.83 1028.75 1028.63 1028.43 1028.23 1028.03 1027.83 1027.51 1027.27 1026.95 1026.51 1026.23 1025.87 1025.55 1025.15 1024.87 1024.59 1024.35 1024.15 1023.79 1023.47 1023.07 1022.75 1022.27 1021.63 1020.99 1020.35 1019.71 1019.19 1018.63 1017.99 1017.35 1016.71 1016.07 1015.51 1014.83 1014.15 1013.63 1012.79 1011.63 1010.15 1008.75 1007.15 1006.11 1004.95 1003.95 1003.47 1003.15 1002.59
1029.27 1029.27 1029.39 1029.43 1029.19 1029.19 1029.39 1029.47 1029.31 1029.19 1029.15 1029.07 1028.95 1028.91 1028.91 1028.87 1028.75 1028.51 1028.27 1028.07 1027.87 1027.67 1027.31 1027.03 1026.79 1026.31 1026.03 1025.67 1025.31 1024.95 1024.75 1024.55 1024.31 1023.95 1023.63 1023.19 1022.83 1022.35 1021.91 1021.27 1020.59 1019.87 1019.31 1018.63 1017.99 1017.39 1016.75 1016.07 1015.43 1014.79 1014.23 1013.47 1012.31 1011.03 1009.83 1008.47 1007.23 1005.91 1004.43 1003.39 1002.99 1002.43 1001.95
1029.11 1029.27 1029.23 1029.31 1029.11 1029.07 1029.27 1029.15 1029.15 1029.19 1029.03 1028.95 1029.03 1028.91 1028.91 1028.95 1028.79 1028.55 1028.27 1027.99 1027.87 1027.67 1027.43 1027.11 1026.83 1026.55 1026.15 1025.83 1025.43 1025.07 1024.83 1024.55 1024.23 1023.91 1023.79 1023.47 1023.03 1022.55 1021.91 1021.35 1020.67 1019.99 1019.39 1018.71 1018.03 1017.43 1016.79 1016.15 1015.39 1014.91 1014.15 1013.15 1012.07 1010.91 1009.67 1008.51 1007.43 1006.27 1005.19 1004.23 1003.39 1003.07 1002.99
1029.19 1029.23 1029.19 1029.23 1029.15 1028.99 1028.99 1029.07 1029.11 1029.15 1029.23 1029.15 1028.99 1028.87 1028.95 1029.03 1028.91 1028.71 1028.51 1028.19 1027.91 1027.71 1027.47 1027.27 1026.91 1026.63 1026.31 1025.91 1025.51 1025.15 1024.87 1024.59 1024.31 1024.11 1023.83 1023.51 1023.03 1022.59 1021.99 1021.39 1020.87 1020.27 1019.51 1018.79 1018.15 1017.51 1016.91 1016.27 1015.75 1014.99 1014.11 1013.11 1012.03 1010.99 1010.11 1009.03 1007.87 1007.03 1006.11 1005.11 1004.39 1003.91 1003.63
Wind_Speed
6 5 6 5 5 5 6 8 7 7 9 9 9 10 9 9 8 8 8 8 8 8 7 7 7 6 5 5 6 6 5 6 7 7 7 6 6 3 4 7 8 9 9 11 12 11 11 13 8 5 7 9 8 10 10 10 11 10 11 8 9 9 8
5 5 5 6 6 6 8 8 7 7 8 9 10 10 10 10 9 9 9 9 10 9 8 8 9 10 10 8 8 8 7 6 6 6 7 6 5 7 7 5 5 7 7 9 10 10 9 9 11 10 8 5 7 8 9 10 9 9 10 9 8 10 9
6 6 6 7 7 7 8 9 8 8 8 9 9 11 10 10 10 10 9 10 10 10 9 10 11 11 10 9 9 9 8 8 5 5 6 6 6 6 6 7 7 7 7 6 8 8 9 11 12 10 8 8 7 6 8 9 11 10 9 8 9 9 8
9 8 7 8 8 9 8 9 9 8 8 9 8 9 11 11 10 10 10 9 10 9 8 10 9 8 7 8 9 10 10 10 8 9 7 6 6 7 7 6 9 10 9 7 6 5 7 7 8 10 9 8 9 8 7 9 8 10 8 8 9 9 8
9 8 9 9 9 9 9 8 7 7 8 8 9 9 10 11 10 10 10 9 10 8 8 8 8 8 8 7 8 8 8 9 10 9 8 8 9 8 8 6 7 7 8 7 7 7 8 9 9 10 9 6 6 7 2 5 9 9 10 10 9 9 8
9 9 9 9 8 8 7 8 8 8 7 8 9 8 9 10 9 9 10 10 10 9 9 9 9 10 9 8 8 8 8 8 8 8 7 8 9 9 9 8 7 7 8 7 7 8 8 8 8 8 9 5 6 4 4 4 5 7 10 10 8 9 9
8 8 8 8 7 7 7 7 8 7 7 7 7 8 7 8 8 8 8 9 10 10 10 10 10 10 10 9 9 9 9 8 9 9 8 9 9 9 9 9 8 8 7 7 8 9 9 8 8 8 9 6 6 9 4 4 3 4 7 11 10 9 9
8 8 7 7 7 8 7 7 7 6 6 6 7 6 8 8 9 8 10 11 11 11 11 11 10 10 11 10 8 9 8 8 9 9 8 9 8 10 11 10 9 8 8 7 8 9 8 9 9 9 8 7 6 7 7 5 4 9 7 6 10 11 10
7 7 8 7 7 7 7 7 7 7 6 6 6 7 8 8 8 9 9 10 10 10 10 11 11 10 10 9 9 10 10 8 9 11 9 10 10 11 10 11 10 9 8 9 9 9 8 9 8 7 7 7 7 7 5 8 7 8 9 7 6 11 12
9 9 8 8 8 7 7 7 7 7 7 7 7 6 7 8 8 9 8 9 10 9 9 10 10 10 10 9 9 10 11 12 11 11 10 10 10 10 9 11 9 9 9 10 10 9 9 8 7 8 7 8 7 7 7 6 7 7 7 9 8 8 11
8 8 8 7 6 7 7 6 7 7 8 7 6 6 7 8 8 10 9 10 9 10 10 9 10 10 10 8 9 9 9 10 10 10 11 11 11 10 10 10 10 9 10 10 11 12 10 9 9 8 8 8 8 9 9 9 8 6 4 5 9 6 8
7 7 7 7 6 7 7 7 7 7 6 7 7 7 7 8 8 8 9 10 10 10 10 10 10 9 10 9 10 10 10 11 10 10 9 10 11 11 12 12 11 10 10 11 11 11 11 10 9 8 8 8 9 10 10 9 9 5 5 7 7 8 7
8 7 7 6 7 7 7 8 7 7 7 7 7 7 8 8 8 9 8 9 10 10 10 9 9 10 8 8 9 10 11 12 12 11 10 8 8 10 12 12 12 11 11 11 10 11 11 12 11 9 8 8 9 10 10 9 11 11 5 7 6 7 8
9 8 9 7 7 7 7 7 8 7 6 8 7 8 9 9 9 10 8 9 9 10 10 10 9 9 9 9 9 10 11 12 13 11 11 12 10 10 11 12 12 13 12 12 9 10 10 12 13 11 8 8 8 9 9 9 10 11 8 4 4 6 7
8 9 9 8 8 8 8 8 7 7 9 8 8 9 9 8 8 8 9 9 10 10 11 10 11 9 10 11 11 10 10 12 13 13 12 12 13 11 11 12 13 13 12 12 12 10 10 11 11 12 12 10 9 8 9 9 10 10 12 4 7 4 5
9 9 9 7 9 9 8 8 8 8 8 8 8 9 9 9 9 8 9 9 9 10 11 10 10 10 10 12 12 12 12 11 13 14 14 13 13 13 13 13 14 13 11 13 13 11 11 11 10 11 13 12 12 11 10 11 10 10 11 11 7 8 7
9 8 8 7 9 8 8 7 7 8 8 8 9 8 9 9 9 9 9 9 9 9 11 11 10 10 11 11 13 13 12 11 11 13 13 13 13 13 13 14 13 14 14 14 13 12 11 12 13 12 13 13 13 15 13 11 11 10 9 11 9 9 8
8 8 8 7 8 8 8 7 7 8 8 8 8 8 8 8 9 8 10 12 11 10 12 11 11 11 10 10 12 12 12 11 11 13 13 13 13 13 13 13 14 14 14 13 12 12 12 14 12 12 11 12 12 12 13 13 12 11 10 11 11 8 8
8 7 7 7 7 7 7 7 7 7 7 9 8 8 9 8 8 9 9 11 11 10 9 10 11 11 11 11 13 12 11 10 10 11 13 13 12 12 12 13 14 14 14 13 12 12 13 14 12 12 13 11 11 12 14 14 15 13 11 11 12 11 8
7 6 6 6 6 6 6 6 7 7 6 7 8 8 9 9 8 8 8 8 8 9 9 9 10 12 13 11 13 13 11 12 10 10 11 13 13 12 12 12 13 13 13 13 13 12 13 13 12 15 13 13 12 11 11 12 13 15 12 11 11 11 10
6 6 5 5 6 6 6 6 7 6 6 8 8 9 9 8 7 7 7 7 7 7 8 9 10 11 11 10 11 10 10 10 11 11 11 12 13 12 13 12 13 13 13 13 13 12 13 12 11 13 14 13 13 14 13 12 12 12 13 12 11 9 9
5 5 5 6 6 6 6 6 6 6 7 7 7 8 8 8 9 10 9 9 8 8 8 9 10 11 12 12 10 10 10 10 11 10 11 12 12 13 12 12 12 13 16 19 20 16 16 16 11 11 14 14 15 13 13 13 10 11 12 13 12 10 10
5 5 5 6 6 6 6 6 6 7 8 8 8 8 8 8 9 9 9 8 8 7 8 7 14 20 17 13 12 9 9 9 9 9 11 12 12 13 13 13 13 20 20 20 19 16 16 17 17 14 13 11 13 15 14 13 13 11 11 13 13 10 11
4 5 4 5 5 6 7 6 7 8 8 8 8 7 7 9 8 8 8 8 9 8 7 9 17 17 18 20 13 11 10 10 9 9 9 11 13 13 13 13 12 15 17 17 17 18 16 17 18 21 22 20 16 12 14 16 14 12 10 11 12 12 11
5 5 5 6 6 6 6 7 7 7 7 8 7 6 8 8 7 8 8 9 9 8 8 12 17 18 18 19 18 11 10 9 9 9 9 10 12 13 13 13 12 10 11 15 17 15 17 19 20 22 23 22 20 18 16 15 15 15 13 12 14 14 12
5 5 5 5 5 5 6 6 6 6 7 5 5 7 7 7 8 8 8 9 9 8 7 14 17 18 18 19 20 16 9 10 9 10 10 10 11 13 13 12 12 11 11 20 17 14 16 18 21 23 23 23 20 18 16 16 18 17 14 16 17 17 14
5 4 4 5 5 6 6 5 5 4 5 6 6 6 7 8 7 8 7 8 8 9 9 15 18 19 19 20 20 15 9 11 10 10 10 11 11 12 13 13 13 13 13 15 14 15 17 18 18 18 17 16 16 19 18 18 17 19 19 17 17 18 16
5 4 5 5 5 5 5 4 5 5 5 5 5 6 6 7 7 7 8 7 7 9 8 16 18 19 19 20 20 14 11 10 9 10 10 10 11 12 14 13 14 14 15 15 14 19 19 18 18 16 17 17 16 16 16 16 15 13 11 12 14 16 18
4 4 5 5 5 4 4 4 5 5 5 6 6 6 6 5 7 8 8 8 8 10 10 17 18 19 19 19 19 10 12 12 10 10 10 11 11 11 13 14 14 15 16 16 20 25 23 19 17 17 18 17 17 16 16 15 18 18 18 15 15 16 17
4 4 4 5 4 3 3 5 5 4 6 6 6 7 6 6 6 7 8 8 9 9 10 14 17 18 19 19 15 11 12 11 9 11 11 10 11 13 13 15 15 15 16 17 23 25 25 24 16 17 17 18 16 16 17 16 17 18 18 20 23 24 27
4 4 4 4 3 2 2 2 3 2 4 5 6 6 5 6 7 7 8 9 9 9 10 13 17 18 19 18 15 11 10 10 13 14 14 13 12 12 15 23 21 16 18 19 25 25 25 22 17 17 18 18 19 18 18 17 15 16 20 20 22 23 25
4 4 3 2 2 3 2 2 2 2 3 4 4 5 5 6 7 7 7 7 11 10 9 10 15 17 19 18 14 10 10 11 13 14 14 13 13 13 14 16 21 19 19 22 25 24 25 22 16 16 16 17 18 19 17 19 19 19 19 17 15 14 14
3 3 3 2 1 1 0 2 4 4 3 4 4 5 5 6 7 7 7 7 7 8 8 10 12 17 18 18 18 11 9 11 14 15 13 13 14 14 14 14 14 19 24 24 24 25 24 24 19 16 15 15 19 20 19 19 19 18 18 18 16 14 15
4 2 2 3 1 1 2 2 3 3 4 5 5 6 6 6 6 7 7 6 7 8 7 9 11 16 17 18 18 14 8 10 11 13 13 13 13 13 14 13 10 18 24 24 24 25 24 24 23 17 14 14 16 21 22 16 18 23 15 16 14 13 11
2 2 1 1 3 2 2 1 2 3 4 4 5 6 6 6 6 7 6 6 6 8 9 12 9 13 16 18 17 19 10 10 12 11 13 13 14 13 13 12 10 18 24 24 24 24 25 23 24 14 17 25 26 27 21 15 13 14 12 10 9 10 8
2 2 1 1 2 1 1 2 3 3 4 5 5 5 6 6 7 8 8 7 7 7 8 8 12 11 15 16 17 16 17 12 15 10 9 11 11 10 9 11 12 22 23 23 23 24 23 25 19 19 27 25 26 27 21 13 14 13 12 11 8 8 9
2 1 2 2 1 1 1 2 2 3 4 4 5 6 6 6 6 7 8 9 8 8 8 8 9 13 13 16 15 16 16 17 16 10 9 9 10 12 12 13 14 22 21 23 23 23 22 21 19 26 26 26 26 23 15 16 13 13 11 11 11 10 10
Wind_Direction
48 56 39 37 33 38 36 36 33 33 30 29 25 21 17 12 18 23 21 23 24 8 3 1 348 332 325 327 319 311 299 298 300 286 286 272 282 289 212 244 247 248 249 248 250 259 273 282 271 220 243 245 232 226 216 213 213 211 209 207 211 208 205
38 39 46 38 36 27 40 31 33 34 35 28 27 23 16 14 21 23 24 23 23 11 10 6 5 1 352 345 341 333 324 314 305 303 290 295 295 279 278 253 243 253 255 245 250 246 255 268 270 261 252 218 236 233 224 216 215 212 210 207 207 204 208
33 30 37 38 32 27 36 26 21 24 26 26 23 21 17 14 21 22 21 24 23 19 17 8 10 5 353 349 347 336 327 317 301 293 293 289 282 287 279 278 279 280 258 251 244 248 248 240 259 270 253 237 223 227 221 218 217 213 211 208 210 210 205
39 38 38 35 32 32 31 25 22 19 20 23 18 20 18 12 18 21 19 22 33 25 18 15 9 350 349 349 344 351 350 346 343 339 329 311 299 284 274 283 286 275 278 279 288 262 251 257 257 257 256 236 234 240 216 214 214 218 214 207 210 210 206
49 49 46 43 36 39 34 29 21 22 21 22 21 20 15 12 16 17 16 24 29 12 16 12 2 357 353 349 355 356 349 347 353 348 334 332 328 319 307 296 298 305 297 289 288 280 267 264 257 266 259 247 250 239 214 191 212 211 210 208 210 213 209
56 55 52 50 38 42 34 33 26 25 17 21 19 18 14 14 17 15 17 20 17 7 3 2 356 356 358 352 352 351 347 346 345 335 326 327 328 320 315 303 290 291 291 284 273 276 275 270 265 264 264 225 250 262 233 191 218 217 216 211 208 208 211
59 57 55 54 46 46 42 40 35 28 27 23 18 20 7 13 23 22 24 25 21 13 10 4 360 357 356 352 347 347 344 339 337 334 324 325 323 318 318 316 310 302 298 292 286 283 275 262 251 247 259 242 237 256 254 231 215 212 229 222 210 207 210
61 58 56 52 47 46 41 43 36 30 30 22 24 16 12 19 22 20 27 30 22 17 13 10 4 1 360 354 352 343 335 337 336 332 328 329 322 325 323 317 312 306 299 293 288 288 273 257 251 247 242 247 242 239 244 229 233 217 236 206 215 216 210
59 60 56 49 47 46 46 42 37 31 26 23 24 23 18 19 21 21 31 31 20 16 14 10 7 4 359 358 355 353 342 342 336 336 332 328 325 325 320 318 315 311 307 300 293 287 278 266 255 252 245 241 244 250 228 244 234 240 227 231 215 218 214
55 54 53 49 45 43 45 41 38 33 28 26 25 23 21 23 21 28 27 25 19 13 10 8 5 1 356 355 352 347 352 347 341 337 331 330 326 321 317 320 316 310 311 311 301 290 280 269 254 246 237 238 238 250 252 243 240 234 231 203 227 216 210
57 55 52 49 43 47 43 42 39 39 33 27 28 28 30 33 30 30 25 21 18 14 11 6 4 359 355 354 348 348 346 344 345 342 339 334 329 328 324 322 319 314 318 317 315 308 296 281 266 248 237 234 233 238 240 248 254 210 239 205 213 222 192
51 53 50 46 44 47 44 40 42 41 39 36 30 30 32 31 29 27 26 22 18 14 9 8 2 360 358 353 353 350 349 346 340 334 335 337 335 335 332 327 326 318 317 316 314 313 309 297 276 261 247 236 230 231 237 243 255 237 187 222 220 221 208
47 50 44 39 40 41 41 43 39 37 37 36 33 30 32 29 24 24 22 23 18 14 10 7 3 359 355 359 350 352 351 348 341 334 327 322 326 333 334 331 329 324 321 318 316 318 317 313 303 276 257 249 241 233 236 238 242 251 207 215 217 221 214
46 46 45 35 36 34 37 40 39 35 30 33 27 30 30 27 25 23 20 21 18 14 8 6 3 358 357 353 354 352 352 349 345 341 334 326 324 325 328 329 329 326 324 318 317 316 315 315 312 302 276 256 250 242 236 240 245 252 250 204 224 222 217
49 47 45 34 36 35 35 38 35 31 35 27 27 27 27 25 21 18 19 18 16 14 10 6 4 359 357 353 351 355 347 344 346 343 340 337 335 332 325 322 325 325 323 321 319 316 318 316 314 314 309 291 267 251 238 241 244 246 254 217 223 226 236
48 45 43 37 38 36 34 34 32 34 32 28 25 28 24 25 21 18 20 16 14 14 9 5 3 360 357 355 353 352 348 342 344 345 343 339 336 335 332 329 325 325 324 322 324 321 320 317 316 316 321 325 314 287 259 239 244 246 245 248 211 218 222
50 44 45 39 42 38 35 33 34 36 33 30 31 24 25 25 22 20 19 14 14 10 9 7 2 2 357 354 355 350 346 345 342 346 342 339 338 339 337 333 333 330 330 327 325 325 326 335 338 335 330 327 322 318 299 269 241 247 249 257 231 217 219
51 47 46 42 42 39 35 34 33 38 33 33 30 26 24 21 25 20 19 17 11 10 9 6 4 360 358 354 354 350 347 344 342 347 343 339 340 340 338 338 335 336 335 331 331 334 338 335 334 332 327 323 318 314 314 302 275 246 244 245 253 228 215
50 49 46 43 38 37 34 32 33 34 33 33 28 28 26 21 22 18 17 15 12 8 3 6 6 1 356 355 357 352 346 344 343 343 345 342 340 339 338 336 336 336 336 333 328 333 337 334 332 331 327 324 325 322 317 312 303 277 243 241 245 247 206
55 50 46 42 39 35 34 30 30 31 25 28 31 25 22 23 17 18 12 9 6 3 1 3 6 3 360 355 356 351 344 346 341 342 343 345 339 336 335 334 335 336 334 334 332 334 333 332 332 328 326 326 324 320 313 311 309 301 277 252 243 239 231
54 54 50 46 42 38 34 32 29 25 26 28 28 26 21 19 14 14 12 9 0 1 359 5 6 2 358 353 350 344 343 342 342 339 338 342 340 335 333 333 334 334 333 334 335 331 332 331 331 326 327 326 323 318 314 312 310 304 297 274 248 241 228
54 50 47 48 43 37 34 31 29 29 29 30 26 27 21 20 18 16 11 8 1 1 6 6 8 360 354 352 349 343 342 342 342 336 336 339 337 337 334 333 332 332 333 333 331 328 328 330 328 324 323 323 319 314 310 307 301 300 298 291 270 247 237
54 48 47 46 41 38 35 31 30 31 29 27 26 21 21 19 17 12 5 358 359 360 2 3 1 356 357 354 346 342 340 341 339 338 338 338 339 340 337 333 328 331 333 332 331 328 329 324 322 319 313 312 311 310 305 300 296 294 293 290 286 266 243
51 50 43 46 40 39 34 31 33 31 27 25 20 15 14 14 11 4 2 357 357 359 357 359 356 354 353 354 350 344 341 340 337 338 337 339 337 336 334 331 329 329 331 332 333 332 326 322 321 318 313 305 294 285 296 296 289 287 288 287 286 277 260
54 43 43 39 37 34 32 32 31 26 24 18 10 9 15 6 3 0 358 356 356 353 351 354 355 353 353 353 352 344 344 342 340 336 339 336 337 337 330 328 327 326 326 329 332 330 326 325 320 316 311 307 301 286 261 258 279 289 283 283 281 278 270
52 45 36 37 34 33 31 27 21 16 16 7 8 14 1 1 357 354 355 354 349 347 344 354 353 352 353 353 352 352 348 344 339 340 336 335 332 337 337 331 327 324 324 329 331 328 328 325 320 315 308 305 299 291 284 264 246 250 268 271 273 269 265
52 37 32 34 35 32 28 13 354 358 4 7 14 4 359 355 350 351 350 348 341 343 347 354 351 353 354 353 351 350 350 345 342 338 338 337 335 337 340 336 332 328 328 329 327 330 330 324 320 315 313 310 305 302 296 287 273 253 244 252 258 261 264
59 45 41 43 43 36 21 6 6 357 7 3 3 355 349 346 346 346 343 344 343 348 349 349 350 350 353 353 349 350 351 347 343 341 339 337 335 336 339 339 336 333 332 330 330 332 328 324 318 313 309 308 305 301 294 291 290 292 283 268 263 258 257
66 55 53 51 50 36 26 14 12 348 3 3 1 1 357 352 350 343 342 348 351 354 349 348 349 350 352 354 349 351 351 350 345 340 340 341 337 341 343 342 342 339 336 331 332 330 328 325 318 313 313 309 307 301 292 275 270 274 274 275 270 267 268
78 65 61 62 50 37 33 16 9 6 19 8 6 4 354 348 341 343 345 355 355 353 349 346 347 349 351 354 355 353 351 348 343 341 339 336 339 343 345 345 345 341 337 335 333 330 329 329 322 319 315 314 309 305 299 299 290 281 273 269 268 265 259
99 82 74 79 71 43 18 0 14 10 35 5 7 352 343 350 350 353 354 354 354 355 344 339 345 347 350 355 355 355 349 346 346 348 343 343 344 344 344 345 346 343 340 336 333 332 332 333 328 322 319 318 318 314 308 306 304 300 286 273 269 265 263
115 111 102 104 88 64 35 21 319 351 14 15 1 345 356 1 352 354 354 349 348 356 339 336 344 347 350 355 358 355 355 351 352 350 348 344 344 342 340 341 339 338 339 337 334 335 335 337 329 324 322 321 320 313 308 307 305 302 298 296 284 276 265
129 128 133 126 97 53 329 10 3 7 3 17 360 358 359 1 358 350 345 347 347 350 343 342 342 347 351 352 357 358 357 359 357 350 349 347 345 343 343 340 336 338 339 338 338 338 338 338 336 327 325 325 323 316 311 305 297 289 282 276 272 269 264
141 163 169 148 135 50 25 22 360 17 3 358 10 8 7 358 355 345 344 345 347 350 348 345 339 348 351 353 355 1 359 2 357 355 352 351 349 345 342 338 329 337 339 340 340 340 340 338 338 333 329 325 318 311 312 301 304 302 291 282 265 260 259
157 158 152 119 96 51 357 356 13 7 3 14 12 5 360 359 354 347 346 348 354 346 343 343 346 347 352 353 353 359 5 2 0 357 357 357 352 348 340 338 328 335 338 340 342 342 340 340 338 338 332 328 326 328 325 311 310 314 310 294 257 253 254
162 151 142 129 117 104 333 14 7 13 16 9 13 4 2 356 355 352 351 356 356 352 345 340 350 350 349 352 351 356 359 0 359 3 357 351 346 338 330 338 335 340 340 341 343 342 341 341 342 340 335 336 337 335 333 329 331 334 341 346 0 19 18
166 136 148 135 118 92 8 354 354 19 0 14 5 4 1 354 356 357 354 350 353 350 346 345 341 350 349 351 349 353 355 355 358 355 353 348 344 341 343 345 339 337 342 343 343 343 340 343 344 341 340 342 344 344 341 338 340 342 343 356 4 12 16